| time (UTC) | temp C | wind direction | speed KPH | gust KPH | rain 1hr cm | rain 24hr cm | rain mn cm | humidity % | barometer mb |
| 20260503055005 | 11 | 333 | 0.0 | 0.0 | 0.00 | 0.03 | 0.03 | 77 | 1016.3 |
| 20260503054504 | 12 | 333 | 0.0 | 0.0 | 0.00 | 0.03 | 0.03 | 76 | 1016.3 |
| 20260503054004 | 12 | 333 | 0.0 | 0.0 | 0.00 | 0.03 | 0.03 | 76 | 1016.4 |
| 20260503053505 | 12 | 333 | 0.0 | 0.0 | 0.00 | 0.03 | 0.03 | 75 | 1016.4 |
| 20260503053005 | 12 | 327 | 3.2 | 3.2 | 0.00 | 0.03 | 0.03 | 74 | 1016.4 |
| 20260503052504 | 12 | 11 | 3.2 | 11.3 | 0.00 | 0.03 | 0.03 | 74 | 1016.5 |
| 20260503052004 | 12 | 62 | 8.0 | 12.9 | 0.00 | 0.03 | 0.03 | 74 | 1016.5 |
| 20260503051504 | 12 | 40 | 6.4 | 11.3 | 0.00 | 0.03 | 0.03 | 73 | 1016.4 |
| 20260503051004 | 12 | 52 | 0.0 | 4.8 | 0.03 | 0.03 | 0.03 | 74 | 1016.4 |
| 20260503050505 | 12 | 93 | 4.8 | 11.3 | 0.03 | 0.03 | 0.03 | 74 | 1016.4 |
| 20260503050005 | 12 | 66 | 1.6 | 9.7 | 0.03 | 0.03 | 0.03 | 74 | 1016.4 |
| 20260503045004 | 12 | 69 | 4.8 | 11.3 | 0.03 | 0.03 | 0.03 | 76 | 1016.3 |
| 20260503044504 | 12 | 124 | 3.2 | 8.0 | 0.03 | 0.03 | 0.03 | 77 | 1016.3 |
| 20260503044004 | 12 | 119 | 4.8 | 9.7 | 0.03 | 0.03 | 0.03 | 78 | 1016.4 |
| 20260503043504 | 12 | 60 | 3.2 | 11.3 | 0.03 | 0.03 | 0.03 | 79 | 1016.3 |
| 20260503042005 | 12 | 120 | 4.8 | 11.3 | 0.03 | 0.03 | 0.03 | 79 | 1016.4 |
| 20260503041004 | 12 | 122 | 4.8 | 11.3 | 0.00 | 0.00 | 0.00 | 77 | 1016.6 |
| 20260503040004 | 12 | 21 | 9.7 | 14.5 | 0.00 | 0.00 | 0.00 | 74 | 1016.2 |
| 20260503035004 | 12 | 16 | 8.0 | 16.1 | 0.00 | 0.00 | 0.00 | 74 | 1015.7 |
| 20260503034504 | 12 | 26 | 14.5 | 24.1 | 0.00 | 0.00 | 0.00 | 74 | 1015.6 |
| 20260503034005 | 12 | 31 | 11.3 | 20.9 | 0.00 | 0.00 | 0.00 | 75 | 1015.8 |
| 20260503033504 | 12 | 67 | 11.3 | 22.5 | 0.00 | 0.00 | 0.00 | 73 | 1016.0 |
| 20260503033004 | 12 | 38 | 11.3 | 14.5 | 0.00 | 0.00 | 0.00 | 73 | 1016.0 |
| 20260503032504 | 12 | 47 | 11.3 | 14.5 | 0.00 | 0.00 | 0.00 | 73 | 1015.8 |
| 20260503032004 | 13 | 101 | 6.4 | 9.7 | 0.00 | 0.00 | 0.00 | 73 | 1016.1 |
| 20260503031504 | 13 | 68 | 6.4 | 14.5 | 0.00 | 0.00 | 0.00 | 70 | 1016.1 |
| 20260503031005 | 13 | 69 | 6.4 | 19.3 | 0.00 | 0.00 | 0.00 | 69 | 1015.9 |
| 20260503030505 | 13 | 69 | 9.7 | 16.1 | 0.00 | 0.00 | 0.00 | 67 | 1016.0 |
| 20260503030005 | 13 | 63 | 6.4 | 20.9 | 0.00 | 0.00 | 0.00 | 66 | 1015.7 |
| 20260503025505 | 14 | 76 | 4.8 | 16.1 | 0.00 | 0.00 | 0.00 | 64 | 1015.6 |
| 20260503024004 | 15 | 88 | 8.0 | 14.5 | 0.00 | 0.00 | 0.00 | 58 | 1015.1 |
| 20260503023504 | 15 | 51 | 11.3 | 25.7 | 0.00 | 0.00 | 0.00 | 56 | 1015.1 |
| 20260503023004 | 15 | 58 | 16.1 | 25.7 | 0.00 | 0.00 | 0.00 | 55 | 1015.0 |
| 20260503022504 | 15 | 42 | 14.5 | 29.0 | 0.00 | 0.00 | 0.00 | 55 | 1014.8 |
| 20260503022004 | 15 | 42 | 12.9 | 22.5 | 0.00 | 0.00 | 0.00 | 55 | 1014.8 |
| 20260503021504 | 15 | 40 | 16.1 | 24.1 | 0.00 | 0.00 | 0.00 | 54 | 1014.8 |
| 20260503021004 | 15 | 51 | 14.5 | 22.5 | 0.00 | 0.00 | 0.00 | 53 | 1014.8 |
| 20260503020505 | 16 | 53 | 9.7 | 19.3 | 0.00 | 0.00 | 0.00 | 52 | 1014.7 |
| 20260503014504 | 16 | 34 | 9.7 | 12.9 | 0.00 | 0.00 | 0.00 | 50 | 1014.8 |
| 20260503014004 | 16 | 19 | 4.8 | 11.3 | 0.00 | 0.00 | 0.00 | 50 | 1014.7 |
| 20260503013505 | 16 | 13 | 4.8 | 14.5 | 0.00 | 0.00 | 0.00 | 51 | 1014.7 |
| 20260503012004 | 16 | 7 | 4.8 | 12.9 | 0.00 | 0.00 | 0.00 | 49 | 1014.8 |
| 20260503011505 | 16 | 357 | 8.0 | 14.5 | 0.00 | 0.00 | 0.00 | 51 | 1014.8 |
| 20260503011004 | 17 | 340 | 9.7 | 22.5 | 0.00 | 0.00 | 0.00 | 50 | 1014.8 |
| 20260503010504 | 17 | 336 | 4.8 | 12.9 | 0.00 | 0.00 | 0.00 | 49 | 1014.8 |
| 20260503010004 | 17 | 15 | 3.2 | 12.9 | 0.00 | 0.00 | 0.00 | 45 | 1014.8 |
| 20260503005504 | 17 | 43 | 8.0 | 20.9 | 0.00 | 0.00 | 0.00 | 45 | 1014.8 |
| 20260503005004 | 17 | 57 | 8.0 | 19.3 | 0.00 | 0.00 | 0.00 | 44 | 1014.7 |
| 20260503004504 | 17 | 93 | 6.4 | 16.1 | 0.00 | 0.00 | 0.00 | 42 | 1014.5 |
| 20260503004004 | 17 | 133 | 8.0 | 19.3 | 0.00 | 0.00 | 0.00 | 41 | 1014.5 |
| 20260503003504 | 17 | 125 | 14.5 | 20.9 | 0.00 | 0.00 | 0.00 | 40 | 1014.4 |
| 20260503002504 | 17 | 107 | 9.7 | 19.3 | 0.00 | 0.00 | 0.00 | 43 | 1014.2 |
| 20260503001504 | 18 | 133 | 14.5 | 24.1 | 0.00 | 0.00 | 0.00 | 39 | 1014.5 |
| 20260503000005 | 20 | 92 | 0.0 | 0.0 | 0.00 | 0.00 | 0.00 | 31 | 1014.2 |
| 20260502235504 | 20 | 92 | 0.0 | 8.0 | 0.00 | 0.00 | 0.00 | 31 | 1014.1 |
| 20260502235004 | 20 | 175 | 0.0 | 0.0 | 0.00 | 0.00 | 0.00 | 32 | 1014.1 |
| 20260502234504 | 20 | 175 | 0.0 | 0.0 | 0.00 | 0.00 | 0.00 | 31 | 1014.1 |
| 20260502234005 | 20 | 175 | 0.0 | 0.0 | 0.00 | 0.00 | 0.00 | 30 | 1014.1 |
| 20260502233504 | 20 | 175 | 0.0 | 9.7 | 0.00 | 0.00 | 0.00 | 30 | 1014.0 |
| 20260502233004 | 20 | 222 | 0.0 | 0.0 | 0.00 | 0.00 | 0.00 | 29 | 1014.1 |
| 20260502232505 | 20 | 222 | 0.0 | 0.0 | 0.00 | 0.00 | 0.00 | 29 | 1014.1 |
| 20260502232004 | 20 | 222 | 0.0 | 0.0 | 0.00 | 0.00 | 0.00 | 29 | 1014.2 |
| 20260502231505 | 20 | 222 | 3.2 | 11.3 | 0.00 | 0.00 | 0.00 | 30 | 1014.3 |
| 20260502231004 | 20 | 198 | 1.6 | 4.8 | 0.00 | 0.00 | 0.00 | 32 | 1014.3 |
| 20260502230504 | 20 | 278 | 1.6 | 11.3 | 0.00 | 0.00 | 0.00 | 33 | 1014.2 |
| 20260502230004 | 20 | 220 | 3.2 | 11.3 | 0.00 | 0.00 | 0.00 | 31 | 1014.2 |
| 20260502225504 | 20 | 312 | 1.6 | 8.0 | 0.00 | 0.00 | 0.00 | 31 | 1014.2 |
| 20260502225004 | 20 | 272 | 0.0 | 1.6 | 0.00 | 0.00 | 0.00 | 30 | 1014.2 |
| 20260502224004 | 20 | 303 | 1.6 | 11.3 | 0.00 | 0.00 | 0.00 | 30 | 1014.3 |
| 20260502223505 | 20 | 283 | 4.8 | 9.7 | 0.00 | 0.00 | 0.00 | 32 | 1014.4 |
| 20260502223004 | 20 | 293 | 4.8 | 11.3 | 0.00 | 0.00 | 0.00 | 31 | 1014.4 |
| 20260502222504 | 20 | 298 | 1.6 | 9.7 | 0.00 | 0.00 | 0.00 | 29 | 1014.6 |
| 20260502222004 | 20 | 325 | 8.0 | 16.1 | 0.00 | 0.00 | 0.00 | 30 | 1014.8 |
| 20260502221504 | 20 | 229 | 0.0 | 0.0 | 0.00 | 0.00 | 0.00 | 33 | 1014.8 |
| 20260502221005 | 20 | 229 | 1.6 | 9.7 | 0.00 | 0.00 | 0.00 | 30 | 1014.8 |
| 20260502220504 | 20 | 273 | 4.8 | 12.9 | 0.00 | 0.00 | 0.00 | 30 | 1014.9 |
| 20260502220005 | 20 | 287 | 0.0 | 0.0 | 0.00 | 0.00 | 0.00 | 30 | 1015.0 |
| 20260502215504 | 20 | 287 | 0.0 | 0.0 | 0.00 | 0.00 | 0.00 | 30 | 1015.1 |
| 20260502214504 | 20 | 287 | 0.0 | 0.0 | 0.00 | 0.00 | 0.00 | 30 | 1015.1 |
| 20260502214004 | 20 | 287 | 0.0 | 0.0 | 0.00 | 0.00 | 0.00 | 30 | 1015.2 |
| 20260502213505 | 20 | 287 | 0.0 | 3.2 | 0.00 | 0.00 | 0.00 | 31 | 1015.2 |
| 20260502212505 | 20 | 316 | 3.2 | 11.3 | 0.00 | 0.00 | 0.00 | 30 | 1015.4 |
| 20260502212004 | 20 | 283 | 3.2 | 12.9 | 0.00 | 0.00 | 0.00 | 30 | 1015.6 |
| 20260502211504 | 20 | 291 | 8.0 | 19.3 | 0.00 | 0.00 | 0.00 | 29 | 1015.6 |
| 20260502211004 | 20 | 288 | 3.2 | 9.7 | 0.00 | 0.00 | 0.00 | 28 | 1015.6 |
| 20260502210505 | 20 | 275 | 3.2 | 11.3 | 0.00 | 0.00 | 0.00 | 28 | 1015.7 |
| 20260502210004 | 20 | 225 | 1.6 | 8.0 | 0.00 | 0.00 | 0.00 | 30 | 1015.7 |
| 20260502205504 | 20 | 248 | 0.0 | 1.6 | 0.00 | 0.00 | 0.00 | 28 | 1015.6 |
| 20260502204504 | 20 | 315 | 3.2 | 4.8 | 0.00 | 0.00 | 0.00 | 27 | 1015.7 |
| 20260502204005 | 21 | 192 | 4.8 | 14.5 | 0.00 | 0.00 | 0.00 | 26 | 1015.6 |
| 20260502203004 | 21 | 215 | 0.0 | 1.6 | 0.00 | 0.00 | 0.00 | 27 | 1015.7 |
| 20260502202504 | 20 | 198 | 1.6 | 4.8 | 0.00 | 0.00 | 0.00 | 28 | 1015.8 |
| 20260502202004 | 20 | 281 | 1.6 | 8.0 | 0.00 | 0.00 | 0.00 | 27 | 1015.8 |
| 20260502201504 | 20 | 303 | 1.6 | 8.0 | 0.00 | 0.00 | 0.00 | 27 | 1015.8 |
| 20260502201005 | 20 | 287 | 0.0 | 0.0 | 0.00 | 0.00 | 0.00 | 28 | 1015.8 |
| 20260502200505 | 21 | 287 | 3.2 | 9.7 | 0.00 | 0.00 | 0.00 | 27 | 1015.9 |
| 20260502200005 | 21 | 295 | 0.0 | 9.7 | 0.00 | 0.00 | 0.00 | 27 | 1015.8 |
| 20260502195504 | 21 | 309 | 1.6 | 9.7 | 0.00 | 0.00 | 0.00 | 26 | 1016.0 |
| 20260502194504 | 21 | 171 | 8.0 | 16.1 | 0.00 | 0.00 | 0.00 | 25 | 1016.1 |
| 20260502194004 | 21 | 183 | 6.4 | 14.5 | 0.00 | 0.00 | 0.00 | 26 | 1016.1 |
| 20260502193503 | 21 | 203 | 1.6 | 8.0 | 0.00 | 0.00 | 0.00 | 26 | 1016.1 |
| 20260502193005 | 21 | 202 | 6.4 | 11.3 | 0.00 | 0.00 | 0.00 | 26 | 1016.1 |
| 20260502192505 | 21 | 262 | 1.6 | 12.9 | 0.00 | 0.00 | 0.00 | 26 | 1016.1 |
| 20260502192004 | 21 | 178 | 8.0 | 14.5 | 0.00 | 0.00 | 0.00 | 25 | 1016.2 |
| 20260502191505 | 21 | 216 | 3.2 | 12.9 | 0.00 | 0.00 | 0.00 | 26 | 1016.2 |
| 20260502191004 | 21 | 221 | 8.0 | 14.5 | 0.00 | 0.00 | 0.00 | 25 | 1016.2 |
| 20260502190505 | 21 | 174 | 11.3 | 14.5 | 0.00 | 0.00 | 0.00 | 24 | 1016.2 |
| 20260502190004 | 21 | 204 | 9.7 | 14.5 | 0.00 | 0.00 | 0.00 | 24 | 1016.3 |
| 20260502185504 | 21 | 183 | 11.3 | 20.9 | 0.00 | 0.00 | 0.00 | 25 | 1016.3 |
| 20260502185004 | 21 | 222 | 8.0 | 16.1 | 0.00 | 0.00 | 0.00 | 25 | 1016.3 |
| 20260502184504 | 21 | 185 | 11.3 | 16.1 | 0.00 | 0.00 | 0.00 | 25 | 1016.3 |
| 20260502184004 | 21 | 237 | 6.4 | 20.9 | 0.00 | 0.00 | 0.00 | 26 | 1016.4 |
| 20260502182004 | 20 | 206 | 11.3 | 25.7 | 0.00 | 0.00 | 0.00 | 29 | 1016.7 |
| 20260502181504 | 20 | 220 | 9.7 | 19.3 | 0.00 | 0.00 | 0.00 | 28 | 1016.7 |
| 20260502180504 | 20 | 242 | 8.0 | 14.5 | 0.00 | 0.00 | 0.00 | 29 | 1016.8 |
| 20260502164004 | 17 | 246 | 0.0 | 0.0 | 0.00 | 0.00 | 0.00 | 42 | 1016.9 |
| 20260502163504 | 17 | 246 | 0.0 | 0.0 | 0.00 | 0.00 | 0.00 | 43 | 1016.9 |
| 20260502163004 | 17 | 246 | 0.0 | 4.8 | 0.00 | 0.00 | 0.00 | 43 | 1016.9 |
| 20260502162504 | 17 | 328 | 0.0 | 0.0 | 0.00 | 0.00 | 0.00 | 44 | 1016.8 |
| 20260502162004 | 17 | 328 | 1.6 | 8.0 | 0.00 | 0.00 | 0.00 | 45 | 1016.8 |
| 20260502161504 | 17 | 154 | 0.0 | 0.0 | 0.00 | 0.00 | 0.00 | 43 | 1016.8 |
| 20260502161005 | 17 | 154 | 0.0 | 0.0 | 0.00 | 0.00 | 0.00 | 43 | 1016.8 |
| 20260502151504 | 13 | 154 | 0.0 | 0.0 | 0.00 | 0.00 | 0.00 | 48 | 1016.9 |
| 20260502151005 | 12 | 154 | 0.0 | 0.0 | 0.00 | 0.00 | 0.00 | 50 | 1017.0 |
| 20260502150505 | 12 | 154 | 0.0 | 0.0 | 0.00 | 0.00 | 0.00 | 52 | 1016.9 |
| 20260502130504 | 7 | 154 | 0.0 | 0.0 | 0.00 | 0.00 | 0.00 | 58 | 1016.2 |
| 20260502123004 | 6 | 154 | 0.0 | 0.0 | 0.00 | 0.00 | 0.00 | 57 | 1016.1 |
| 20260502122504 | 7 | 154 | 0.0 | 0.0 | 0.00 | 0.00 | 0.00 | 56 | 1016.0 |
| 20260502122004 | 7 | 154 | 0.0 | 0.0 | 0.00 | 0.00 | 0.00 | 55 | 1016.0 |
| 20260502121504 | 7 | 154 | 0.0 | 0.0 | 0.00 | 0.00 | 0.00 | 55 | 1016.0 |
| 20260502121005 | 7 | 154 | 0.0 | 0.0 | 0.00 | 0.00 | 0.00 | 55 | 1016.0 |
| 20260502120504 | 7 | 154 | 0.0 | 0.0 | 0.00 | 0.00 | 0.00 | 54 | 1016.1 |
| 20260502115505 | 7 | 154 | 0.0 | 0.0 | 0.00 | 0.00 | 0.00 | 54 | 1016.0 |
| 20260502115004 | 7 | 154 | 0.0 | 0.0 | 0.00 | 0.00 | 0.00 | 53 | 1016.0 |
| 20260502114505 | 7 | 154 | 0.0 | 0.0 | 0.00 | 0.00 | 0.00 | 52 | 1016.0 |
| 20260502114004 | 7 | 154 | 0.0 | 0.0 | 0.00 | 0.00 | 0.00 | 51 | 1016.1 |
| 20260502113504 | 7 | 154 | 0.0 | 0.0 | 0.00 | 0.00 | 0.00 | 51 | 1016.1 |
| 20260502113004 | 7 | 154 | 0.0 | 0.0 | 0.00 | 0.00 | 0.00 | 51 | 1016.1 |
| 20260502112504 | 7 | 154 | 0.0 | 0.0 | 0.00 | 0.00 | 0.00 | 50 | 1016.1 |
| 20260502112004 | 7 | 154 | 0.0 | 0.0 | 0.00 | 0.00 | 0.00 | 49 | 1016.1 |
| 20260502111504 | 7 | 154 | 0.0 | 0.0 | 0.00 | 0.00 | 0.00 | 48 | 1016.1 |
| 20260502111004 | 7 | 154 | 0.0 | 0.0 | 0.00 | 0.00 | 0.00 | 47 | 1016.1 |
| 20260502105504 | 8 | 154 | 0.0 | 0.0 | 0.00 | 0.00 | 0.00 | 45 | 1016.1 |
| 20260502105004 | 8 | 154 | 0.0 | 0.0 | 0.00 | 0.00 | 0.00 | 44 | 1016.1 |
| 20260502104504 | 8 | 154 | 0.0 | 0.0 | 0.00 | 0.00 | 0.00 | 44 | 1016.1 |
| 20260502104004 | 8 | 154 | 0.0 | 0.0 | 0.00 | 0.00 | 0.00 | 44 | 1016.1 |
| 20260502103505 | 7 | 154 | 0.0 | 0.0 | 0.00 | 0.00 | 0.00 | 45 | 1016.1 |
| 20260502103004 | 8 | 154 | 0.0 | 0.0 | 0.00 | 0.00 | 0.00 | 46 | 1016.1 |
| 20260502102505 | 8 | 154 | 0.0 | 0.0 | 0.00 | 0.00 | 0.00 | 44 | 1016.0 |
| 20260502102004 | 8 | 154 | 0.0 | 0.0 | 0.00 | 0.00 | 0.00 | 44 | 1016.0 |
| 20260502101004 | 8 | 154 | 0.0 | 0.0 | 0.00 | 0.00 | 0.00 | 44 | 1016.0 |
| 20260502100505 | 8 | 154 | 0.0 | 0.0 | 0.00 | 0.00 | 0.00 | 44 | 1015.8 |
| 20260502091504 | 8 | 154 | 0.0 | 0.0 | 0.00 | 0.00 | 0.00 | 44 | 1016.2 |
| 20260502091004 | 8 | 154 | 0.0 | 0.0 | 0.00 | 0.00 | 0.00 | 43 | 1016.3 |
| 20260502071504 | 10 | 154 | 0.0 | 0.0 | 0.00 | 0.00 | 0.00 | 39 | 1017.1 |
| 20260502071004 | 11 | 154 | 0.0 | 0.0 | 0.00 | 0.00 | 0.00 | 38 | 1017.1 |
| 20260502070504 | 11 | 154 | 0.0 | 0.0 | 0.00 | 0.00 | 0.00 | 37 | 1017.0 |